• In United Kingdom
  • List of Countries
  • For 7 days
  • Water Temperature
  • Satellite Maps
  • Weather Map
  • Weather Widgets
  • user-avatar
    Login

    Hourly Weather San Luis Potosí

    Today, 25 November, Saturday

    Time Temperature Precipitation Wind Pressure Humidity
    00:00 +11°C° 0 mm 1 mps 608 mmHg 32%
    01:00 +11°C° 0 mm 1 mps 607 mmHg 30%
    02:00 +11°C° 0 mm 1 mps 607 mmHg 29%
    03:00 +10°C° 0 mm 2 mps 607 mmHg 28%
    04:00 +9°C° 0 mm 2 mps 607 mmHg 28%
    05:00 +9°C° 0 mm 2 mps 608 mmHg 28%
    06:00 +12°C° 0 mm 2 mps 609 mmHg 26%
    07:00 +15°C° 0 mm 2 mps 610 mmHg 24%
    08:00 +17°C° 0 mm 2 mps 611 mmHg 22%
    09:00 +19°C° 0 mm 3 mps 612 mmHg 20%
    10:00 +21°C° 0 mm 3 mps 612 mmHg 17%
    11:00 +23°C° 0 mm 4 mps 613 mmHg 15%
    12:00 +25°C° 0 mm 3 mps 613 mmHg 14%
    13:00 +25°C° 0 mm 3 mps 612 mmHg 13%
    14:00 +26°C° 0 mm 3 mps 612 mmHg 12%
    15:00 +24°C° 0 mm 3 mps 611 mmHg 15%
    16:00 +21°C° 0 mm 3 mps 611 mmHg 18%
    17:00 +19°C° 0 mm 3 mps 610 mmHg 20%
    18:00 +18°C° 0 mm 2 mps 610 mmHg 23%
    19:00 +16°C° 0 mm 2 mps 610 mmHg 25%
    20:00 +15°C° 0 mm 2 mps 610 mmHg 28%
    21:00 +14°C° 0 mm 1 mps 610 mmHg 30%
    22:00 +13°C° 0 mm 1 mps 610 mmHg 33%
    23:00 +13°C° 0 mm 1 mps 610 mmHg 35%

    Tomorrow, 26 November, Sunday

    Time Temperature Precipitation Wind Pressure Humidity
    00:00 +12°C° 0 mm 1 mps 610 mmHg 37%
    01:00 +12°C° 0 mm 1 mps 610 mmHg 39%
    02:00 +11°C° 0 mm 1 mps 610 mmHg 41%
    03:00 +11°C° 0 mm 1 mps 610 mmHg 43%
    04:00 +10°C° 0 mm 1 mps 610 mmHg 45%
    05:00 +10°C° 0 mm 1 mps 610 mmHg 47%
    06:00 +12°C° 0 mm 2 mps 611 mmHg 43%
    07:00 +14°C° 0 mm 2 mps 612 mmHg 39%
    08:00 +15°C° 0 mm 2 mps 614 mmHg 36%
    09:00 +17°C° 0 mm 3 mps 614 mmHg 33%
    10:00 +19°C° 0 mm 4 mps 614 mmHg 30%
    11:00 +20°C° 0 mm 5 mps 615 mmHg 28%
    12:00 +20°C° 0 mm 5 mps 614 mmHg 28%
    13:00 +21°C° 0 mm 5 mps 613 mmHg 27%
    14:00 +21°C° 0 mm 5 mps 613 mmHg 27%
    15:00 +20°C° 0 mm 5 mps 612 mmHg 32%
    16:00 +18°C° 0 mm 4 mps 612 mmHg 36%
    17:00 +15°C° 0 mm 4 mps 611 mmHg 41%
    18:00 +14°C° 0 mm 4 mps 612 mmHg 46%
    19:00 +13°C° 0 mm 3 mps 612 mmHg 52%
    20:00 +11°C° 0 mm 3 mps 612 mmHg 57%
    21:00 +12°C° 0 mm 2 mps 612 mmHg 60%
    22:00 +10°C° 0 mm 2 mps 612 mmHg 62%
    23:00 +9°C° 0 mm 2 mps 611 mmHg 65%

    Day after tomorrow, 27 November, Monday

    Time Temperature Precipitation Wind Pressure Humidity
    00:00 +10°C° 0 mm 1 mps 611 mmHg 68%
    01:00 +9°C° 0 mm 1 mps 610 mmHg 70%
    02:00 +8°C° 0 mm 1 mps 610 mmHg 73%
    03:00 +8°C° 0 mm 1 mps 609 mmHg 75%
    04:00 +7°C° 0 mm 0 mps 609 mmHg 78%
    05:00 +6°C° 0 mm 0 mps 609 mmHg 81%
    06:00 +8°C° 0 mm 0 mps 610 mmHg 74%
    07:00 +10°C° 0 mm 0 mps 611 mmHg 67%
    08:00 +11°C° 0 mm 0 mps 612 mmHg 59%
    09:00 +14°C° 0 mm 1 mps 612 mmHg 52%
    10:00 +16°C° 0 mm 1 mps 613 mmHg 44%
    11:00 +18°C° 0 mm 2 mps 613 mmHg 36%
    12:00 +19°C° 0 mm 2 mps 612 mmHg 33%
    13:00 +20°C° 0 mm 2 mps 612 mmHg 31%
    14:00 +21°C° 0 mm 2 mps 611 mmHg 28%
    15:00 +20°C° 0 mm 3 mps 610 mmHg 32%
    16:00 +18°C° 0 mm 3 mps 610 mmHg 37%
    17:00 +17°C° 0 mm 3 mps 609 mmHg 41%
    18:00 +16°C° 0 mm 3 mps 609 mmHg 48%
    19:00 +14°C° 0 mm 2 mps 609 mmHg 55%
    20:00 +13°C° 0 mm 2 mps 610 mmHg 61%
    21:00 +12°C° 0 mm 1 mps 609 mmHg 65%
    22:00 +12°C° 0 mm 1 mps 609 mmHg 68%
    23:00 +11°C° 0 mm 1 mps 609 mmHg 72%

    28 November, Tuesday

    Time Temperature Precipitation Wind Pressure Humidity
    00:00 +10°C° 0 mm 1 mps 608 mmHg 73%
    01:00 +10°C° 0 mm 1 mps 608 mmHg 74%
    02:00 +9°C° 0 mm 1 mps 607 mmHg 76%
    03:00 +9°C° 0 mm 1 mps 607 mmHg 76%
    04:00 +9°C° 0 mm 1 mps 607 mmHg 76%
    05:00 +8°C° 0 mm 0 mps 607 mmHg 76%
    06:00 +11°C° 0 mm 1 mps 608 mmHg 66%
    07:00 +13°C° 0 mm 1 mps 610 mmHg 55%
    08:00 +15°C° 0 mm 1 mps 611 mmHg 45%
    09:00 +19°C° 0 mm 1 mps 611 mmHg 38%
    10:00 +21°C° 0 mm 1 mps 612 mmHg 31%
    11:00 +23°C° 0 mm 1 mps 612 mmHg 24%
    12:00 +24°C° 0 mm 2 mps 612 mmHg 21%
    13:00 +24°C° 0 mm 2 mps 611 mmHg 19%
    14:00 +25°C° 0 mm 2 mps 611 mmHg 17%
    15:00 +24°C° 0 mm 2 mps 610 mmHg 21%
    16:00 +21°C° 0 mm 3 mps 610 mmHg 25%
    17:00 +19°C° 0 mm 3 mps 609 mmHg 30%
    18:00 +18°C° 0 mm 3 mps 609 mmHg 37%
    19:00 +16°C° 0 mm 2 mps 610 mmHg 45%
    20:00 +15°C° 0 mm 2 mps 610 mmHg 52%
    21:00 +14°C° 0 mm 1 mps 610 mmHg 57%
    22:00 +13°C° 0 mm 1 mps 609 mmHg 62%
    23:00 +12°C° 0 mm 1 mps 609 mmHg 68%

    29 November, Wednesday

    Time Temperature Precipitation Wind Pressure Humidity
    00:00 +12°C° 0 mm 1 mps 609 mmHg 71%
    01:00 +11°C° 0 mm 1 mps 609 mmHg 74%
    02:00 +11°C° 0 mm 1 mps 608 mmHg 78%
    03:00 +10°C° 0 mm 1 mps 608 mmHg 81%
    04:00 +10°C° 0 mm 1 mps 609 mmHg 85%
    05:00 +10°C° 0 mm 1 mps 609 mmHg 88%
    06:00 +10°C° 0 mm 2 mps 610 mmHg 85%
    07:00 +12°C° 0 mm 2 mps 611 mmHg 81%
    08:00 +13°C° 0 mm 2 mps 612 mmHg 78%
    09:00 +14°C° 0 mm 3 mps 612 mmHg 66%
    10:00 +17°C° 0 mm 4 mps 613 mmHg 54%
    11:00 +17°C° 0 mm 5 mps 613 mmHg 41%
    12:00 +19°C° 0 mm 5 mps 613 mmHg 39%
    13:00 +19°C° 0 mm 5 mps 612 mmHg 37%
    14:00 +20°C° 0 mm 5 mps 612 mmHg 35%
    15:00 +19°C° 0 mm 5 mps 611 mmHg 42%
    16:00 +17°C° 0 mm 4 mps 611 mmHg 49%
    17:00 +15°C° 0 mm 4 mps 611 mmHg 56%
    18:00 +13°C° 0 mm 3 mps 611 mmHg 64%
    19:00 +12°C° 0 mm 3 mps 611 mmHg 71%
    20:00 +12°C° 0 mm 2 mps 611 mmHg 79%
    21:00 +10°C° 0 mm 2 mps 611 mmHg 83%
    22:00 +10°C° 0 mm 1 mps 611 mmHg 87%
    23:00 +10°C° 0 mm 1 mps 610 mmHg 92%

    30 November, Thursday

    Time Temperature Precipitation Wind Pressure Humidity
    00:00 +9°C° 0 mm 1 mps 610 mmHg 93%
    01:00 +9°C° 0 mm 1 mps 609 mmHg 95%
    02:00 +7°C° 0 mm 0 mps 609 mmHg 96%
    03:00 +7°C° 0 mm 0 mps 609 mmHg 96%
    04:00 +7°C° 0 mm 0 mps 609 mmHg 96%
    05:00 +6°C° 0 mm 0 mps 609 mmHg 95%
    06:00 +8°C° 0 mm 0 mps 610 mmHg 86%
    07:00 +10°C° 0 mm 0 mps 611 mmHg 77%
    08:00 +12°C° 0 mm 0 mps 612 mmHg 68%
    09:00 +15°C° 0 mm 1 mps 612 mmHg 54%
    10:00 +18°C° 0 mm 1 mps 612 mmHg 41%
    11:00 +21°C° 0 mm 1 mps 613 mmHg 28%
    12:00 +20°C° 0 mm 2 mps 612 mmHg 25%
    13:00 +21°C° 0 mm 3 mps 612 mmHg 23%
    14:00 +22°C° 0 mm 4 mps 612 mmHg 20%
    15:00 +21°C° 0 mm 4 mps 611 mmHg 26%
    16:00 +19°C° 0 mm 3 mps 611 mmHg 31%
    17:00 +17°C° 0 mm 3 mps 610 mmHg 37%
    18:00 +16°C° 0 mm 3 mps 610 mmHg 44%
    19:00 +14°C° 0 mm 2 mps 610 mmHg 50%
    20:00 +13°C° 0 mm 2 mps 610 mmHg 57%
    21:00 +12°C° 0 mm 2 mps 610 mmHg 62%
    22:00 +11°C° 0 mm 1 mps 610 mmHg 66%
    23:00 +11°C° 0 mm 1 mps 610 mmHg 71%
    Show more